This is the latest recevied weather packets stored in our database for station/object WA6ODQ-13. If no packets are shown the sender has not sent any weather packets the latest 10 day(s).
| Time | Temp. | Humidity | Pressure | Rain* | Wind** | Luminosity | Snow |
|---|---|---|---|---|---|---|---|
| 1788640850 | 27.78° C | 39% | 1011.9 hPa | 0 mm | - | 648 W/m² | - |
| 1788640550 | 26.67° C | 39% | 1012.1 hPa | 0 mm | - | 652 W/m² | - |
| 1788640245 | 27.22° C | 38% | 1012 hPa | 0 mm | - | 654 W/m² | - |
| 1788639940 | 27.22° C | 37% | 1012.1 hPa | 0 mm | - | 658 W/m² | - |
| 1788639636 | 26.67° C | 40% | 1012 hPa | 0 mm | - | 657 W/m² | - |
| 1788639332 | 26.67° C | 40% | 1012 hPa | 0 mm | - | 659 W/m² | - |
| 1788639031 | 27.22° C | 41% | 1012.3 hPa | 0 mm | - | 660 W/m² | - |
| 1788638727 | 26.11° C | 41% | 1012.2 hPa | 0 mm | - | 660 W/m² | - |
| 1788638426 | 26.67° C | 42% | 1012.3 hPa | 0 mm | - | 661 W/m² | - |
| 1788638121 | 26.11° C | 44% | 1012.2 hPa | 0 mm | - | 660 W/m² | - |
| 1788637816 | 26.11° C | 44% | 1012.2 hPa | 0 mm | - | 659 W/m² | - |
| 1788637515 | 25.56° C | 44% | 1012.2 hPa | 0 mm | - | 658 W/m² | - |
| 1788637209 | 26.11° C | 47% | 1012.6 hPa | 0 mm | - | 655 W/m² | - |
| 1788636905 | 25.56° C | 45% | 1012.6 hPa | 0 mm | - | 654 W/m² | - |
| 1788636600 | 26.67° C | 44% | 1012.8 hPa | 0 mm | - | 650 W/m² | - |
| 1788636295 | 25.56° C | 45% | 1012.8 hPa | 0 mm | - | 647 W/m² | - |
| 1788635991 | 25° C | 47% | 1012.7 hPa | 0 mm | - | 644 W/m² | - |
| 1788635689 | 25.56° C | 48% | 1012.9 hPa | 0 mm | - | 640 W/m² | - |
| 1788635383 | 25.56° C | 48% | 1012.9 hPa | 0 mm | - | 634 W/m² | - |
| 1788635082 | 26.11° C | 45% | 1012.9 hPa | 0 mm | - | 630 W/m² | - |
| 1788634780 | 26.67° C | 45% | 1012.8 hPa | 0 mm | - | 625 W/m² | - |
| 1788634476 | 26.11° C | 45% | 1013 hPa | 0 mm | - | 620 W/m² | - |
| 1788634174 | 25.56° C | 46% | 1012.8 hPa | 0 mm | - | 612 W/m² | - |
| 1788633869 | 23.89° C | 49% | 1012.9 hPa | 0 mm | - | 607 W/m² | - |
| 1788633568 | 24.44° C | 48% | 1013 hPa | 0 mm | - | 599 W/m² | - |
* Rain latest hour (hover to see other rain measurements)
** Current wind speed in m/s (hover to see current wind gust speed)